Regional Weather Roundup
Issued by NWS

Home | Current Version | Previous Version | Graphics & Text | Print | Product List | Glossary On
Versions: 1 2 3 4 5 6 7 8 9 10 11 12 13 14 15 16 17 18 19 20 21 22 23 24 25 26 27 28 29 30 31 32 33 34 35 36 37 38 39 40 41 42 43 44 45 46 47 48 49 50
000
ASUS43 KLOT 310312
RWRIL

ILLINOIS REGIONAL WEATHER ROUNDUP
NATIONAL WEATHER SERVICE CHICAGO/ROMEOVILLE IL
1000 PM CDT SUN AUG 30 2015

NOTE: "FAIR" INDICATES FEW OR NO CLOUDS BELOW 12,000 FEET WITH NO
SIGNIFICANT WEATHER AND/OR OBSTRUCTIONS TO VISIBILITY.

* THESE STATIONS ARE NOT UNDER NWS QUALITY CONTROL. THEY ALSO MAY NOT
  REPORT WEATHER SUCH AS PRECIPITATION OR FOG.

ILZ001-002-007-009-015-016-024-310400-
NORTHWEST ILLINOIS

CITY           SKY/WX    TMP DP  RH WIND       PRES   REMARKS
MOLINE         CLEAR     66  63  90 E3        30.02R
STERLING*        N/A    N/A N/A N/A MISG        N/A
SAVANNA*       FOG       65  63  94 CALM      30.03S VSB 1
$$

ILZ003-004-008-010-011-017-018-310400-
NORTH CENTRAL ILLINOIS

CITY           SKY/WX    TMP DP  RH WIND       PRES   REMARKS
ROCKFORD       CLEAR     66  62  87 CALM      30.05S
FREEPORT*      CLEAR     61  60  97 S3        30.06S
ROCHELLE*      CLEAR     62  61  97 CALM      30.05S
DE KALB*       CLEAR     64  63  94 CALM      30.05F
PERU*          CLEAR     68  64  85 SE3       30.04F
$$

ILZ005-006-012>014-019>023-310400-
NORTHEAST ILLINOIS

CITY           SKY/WX    TMP DP  RH WIND       PRES   REMARKS
CHICAGO-OHARE  CLEAR     65  63  93 SE7       30.04S
CHICAGO-MIDWAY CLEAR     70  65  84 E5        30.04S
AURORA         PTCLDY    63  61  93 CALM      30.04S FOG
LANSING*       CLEAR     65  64  97 CALM      30.04F FOG
JOLIET*        CLEAR     66  66  97 CALM      30.03F FOG
WAUKEGAN       FOG       62  61  96 S3        30.04S VSB 3/4
DUPAGE AIRPORT CLEAR     64  61  90 CALM      30.04R
KANKAKEE*      CLEAR     66  66  97 CALM      30.05S FOG
WHEELING       CLEAR     65  62  90 CALM      30.06R FOG
MORRIS*        CLEAR     67  65  93 CALM      30.03F
ROMEOVILLE*    CLEAR     65  62  92 CALM      30.04F FOG
NORTHERLY ISL    N/A     67  65  93 E2          N/A
$$

LMZ740>746-310400-
SOUTHERN LAKE MICHIGAN

STATION/POSITION SKY/WX   TEMP    WIND        PRES    VSBY  WAVE
                          AIR SEA DIR/SP/G                  HT/PER
                          (F)     (DEG/KT/KT) (MB)    (MI)  (FT/S)
SOUTHERN BUOY              67 68  160/  6/  6 1017.0S         0
WILMETTE HARBOR            61 62   10/  2/  2   N/A           1
HARRISON CRIB              68     110/  7/  8   N/A
BURNHAM HARBOR             67     110/  2/  5   N/A
BURNS HARBOR               69      60/  8/  9 1017.9R
MICHIGAN CITY              69      30/  6/  6   N/A
MICHIGAN CITY 6N           70 71   90/  4/  6   N/A           1
ST. JOSEPH                 69 71  100/  4/  4   N/A           1
$$

ILZ025>027-034>036-040-047-049-050-058-095>099-310400-
WEST-CENTRAL ILLINOIS

CITY           SKY/WX    TMP DP  RH WIND       PRES   REMARKS
QUINCY         CLEAR     75  69  81 E6        30.01S
GALESBURG*     CLEAR     68  66  92 E3        30.03S
MACOMB*        CLEAR     67  66  96 CALM      30.04S
JACKSONVILLE*  CLEAR     73  70  89 CALM      30.02S
PITTSFIELD*    CLEAR     72  69  88 CALM      30.03S
$$

ILZ028>032-037-038-041>044-048-051>054-059>061-310400-
CENTRAL ILLINOIS

CITY           SKY/WX    TMP DP  RH WIND       PRES   REMARKS
PONTIAC        CLEAR     67  66  99 CALM      30.05S FOG
BLOOMINGTON    CLEAR     71  69  93 NE5       30.05F
DECATUR        CLEAR     75  68  78 S3        30.03S
PEORIA         CLEAR     73  66  78 E3        30.03S
LACON*         CLEAR     67  63  88 CALM      30.02F
LINCOLN*       PTCLDY    73  68  84 NE3       30.02S
SPRINGFIELD    CLEAR     73  71  93 N3        30.02S
TAYLORVILLE    CLEAR     70  68  94 CALM      30.03S
$$

ILZ033-039-045-046-055>057-062-063-310400-
EAST-CENTRAL ILLINOIS

CITY           SKY/WX    TMP DP  RH WIND       PRES   REMARKS
CHAMPAIGN      CLEAR     70  67  90 S5        30.04S
RANTOUL*       PTCLDY    75  71  87 E6        30.04F
MATTOON        CLEAR     71  68  90 S3        30.03S FOG
PARIS*         CLEAR     69  67  93 CALM      30.05S
$$

ILZ079-100>102-310400-
SOUTHWEST ILLINOIS

CITY           SKY/WX    TMP DP  RH WIND       PRES   REMARKS
BELLEVILLE     PTCLDY    76  76  97 SE3       30.01S
CAHOKIA*       PTCLDY    77  69  76 S5        30.01S
SPARTA*        PTCLDY    75  72  91 SE5       30.04S
$$

ILZ064>066-069>071-074>076-080>082-084>086-088>090-092>094-310400-
SOUTH-CENTRAL ILLINOIS

CITY           SKY/WX    TMP DP  RH WIND       PRES   REMARKS
CARBONDALE     CLEAR     75  70  84 S7        30.04R
CAIRO*         CLEAR     71  71  98 SE5       30.05S
EFFINGHAM*     MOCLDY    70  67  90 CALM      30.05S
MARION         PTCLDY    75  70  83 S6        30.06R
MT. VERNON     PTCLDY    73  66  78 S3        30.05S
SALEM*         PTCLDY    77  70  78 S5        30.04R
METROPOLIS*    CLEAR     72  70  94 CALM      30.06S
$$

ILZ067-068-072-073-078-083-087-091-310400-
SOUTHEAST ILLINOIS

CITY           SKY/WX    TMP DP  RH WIND       PRES   REMARKS
LAWRENCEVILLE  MOCLDY    73  69  87 S7        30.05S
FLORA*         CLEAR     72  67  85 CALM      30.04F
FAIRFIELD*     PTCLDY    74  70  88 CALM      30.04S
HARRISBURG*    MOCLDY    73  70  89 S5        30.06R
ROBINSON*      CLEAR     70  67  92 S3        30.06S
CARMI*         PTCLDY    70  68  94 S3        30.05S
$$

ABBREVIATIONS USED IN REMARKS
   TC - TEMPERATURE IN CELSIUS
  WCI - WIND CHILL INDEX
   HX - HEAT INDEX
  VSB - VISIBILITY
$$



USA.gov is the U.S. government's official web portal to all federal, state and local government web resources and services.